Location: Passau
(48.5830°N, 13.4830°E)
Time: 10:08:24
(UTC+01:00)

NOAA 19 - Pass Details

Date: 08 December 2021
Orbit: 841 x 860 km, 99.2° (Epoch: 26 January)

Event Time Altitude Azimuth Distance (km) Brightness Sun altitude
Rises 20:29:19 0° 222° (SW) 3,388 8.6 -41.6°
Reaches altitude 10° 20:33:24 10° 252° (WSW) 2,463 8.1 -42.3°
Maximum altitude 20:35:26 12° 274° (W) 2,325 8.1 -42.6°
Drops below altitude 10° 20:37:29 10° 297° (WNW) 2,474 8.2 -42.9°
Sets 20:41:38 0° 327° (NNW) 3,421 8.9 -43.6°
